Шарлевиль-Мезьер

Франция     49°45′20″N   4°42′26″E
темп.,
°C
ветер,
м/с
пор.,
м/с
влажн.,
%
обл.,
%
осадки,
мм/ч
давл.,
гПа
погр.,
м
22 октября, пт
пт2223:00+3зсз11941 0.0 101811
02:00+3з11915 0.0 102010
05:00+2зюз11920 0.0 102011
08:00+2зюз22940 0.0 102119
11:00+6зюз51085100 0.0 1022463
14:00+10з61071100 0.1 10221401
17:00+10зсз5966100 0.1 1022757
20:00+8з3769100 0.2 1024227
23 октября, сб
сб2323:00+8зюз2468100 0.0 102597
02:00+7з1174100 0.0 102614
05:00+7ююз1176100 0.0 102610
08:00+6юв008123 0.0 102710
11:00+10ююз11695 0.0 1028265
14:00+12зюз2257100 0.0 1027951
17:00+12юз11651 0.0 1027112
20:00+6всв11790 0.0 102710
24 октября, вс
вс2423:00+5всв21870 0.0 102810
02:00+4в22911 0.0 102712
05:00+3всв22905 0.0 102513
08:00+2в22915 0.0 102512
11:00+7юв46730 0.0 1024301
14:00+12ююв46600 0.0 1023701
17:00+12ю36660 0.0 1021468
20:00+6ююв22820 0.0 102210
25 октября, пн
пн2523:00+5юв22860 0.0 102211
02:00+3юв228824 0.0 102211
05:00+3юв228999 0.0 102212
08:00+2юв2289100 0.0 102213
11:00+7ю247172 0.0 1023207
14:00+10юз3664100 0.0 1022397
17:00+11юз357340 0.0 1022388
20:00+7ю119178 0.0 102310
26 октября, вт
вт2623:00+6ююв11930 0.0 102410
02:00+6ююв11940 0.0 102510
05:00+5ююв11959 0.0 102510
08:00+5ююв2296100 0.0 102512
11:00+9ююз238573 0.0 1026230
14:00+13юз357362 0.0 1025545
17:00+12юз2279100 0.0 102455
20:00+9юз1188100 0.0 102610